Back to catalog

PRAETORIAN SDA_505

AlivePO
NORAD 100063·PAYLOAD·🇺🇸 United States

Launched Jul 16, 2026 from Vandenberg Space Force Base

Loading…

Next Passes (next 24 hours)

TLE

FreshSource: Space-Track

Epoch: Sep 14, 2026, 09:22 UTC

1 A0063U 26163E   26257.39070147  .00000105  00000-0  80318-4 0  9990
2 A0063  81.4775 255.5101 0016210  55.1787 305.0893 13.85841174  8250

Track PRAETORIAN SDA_505 in real time with AllMySat

Download on the App Store